TimeAKDT,TemperatureF,Dew PointF,Humidity,Sea Level PressureIn,VisibilityMPH,Wind Direction,Wind SpeedMPH,Gust SpeedMPH,PrecipitationIn,Events,Conditions,WindDirDegrees,DateUTC
12:53 AM,51.1,48.9,92,30.31,10.0,Calm,Calm,-,N/A,,Clear,0,2013-07-28 08:53:00
1:53 AM,48.9,46.9,93,30.31,10.0,ESE,3.5,-,N/A,,Clear,110,2013-07-28 09:53:00
2:53 AM,46.9,46.0,97,30.31,10.0,Calm,Calm,-,N/A,,Clear,0,2013-07-28 10:53:00
3:53 AM,46.0,45.0,96,30.31,10.0,Calm,Calm,-,N/A,,Clear,0,2013-07-28 11:53:00
4:53 AM,45.0,45.0,100,30.30,10.0,Calm,Calm,-,N/A,,Scattered Clouds,0,2013-07-28 12:53:00
5:53 AM,45.0,44.1,97,30.30,9.0,Calm,Calm,-,N/A,,Mostly Cloudy,0,2013-07-28 13:53:00
6:39 AM,48.9,48.0,97,30.30,10.0,Calm,Calm,-,N/A,,Overcast,0,2013-07-28 14:39:00
6:53 AM,50.0,48.9,96,30.30,10.0,Calm,Calm,-,N/A,,Overcast,0,2013-07-28 14:53:00
7:53 AM,51.1,48.9,92,30.30,10.0,Calm,Calm,-,N/A,,Overcast,0,2013-07-28 15:53:00
8:53 AM,53.1,50.0,89,30.30,10.0,Calm,Calm,-,N/A,,Overcast,0,2013-07-28 16:53:00
9:32 AM,53.1,48.9,86,30.29,10.0,Calm,Calm,-,N/A,,Overcast,0,2013-07-28 17:32:00
9:53 AM,54.0,51.1,90,30.29,10.0,Calm,Calm,-,N/A,,Overcast,0,2013-07-28 17:53:00
10:34 AM,57.9,51.1,78,30.28,8.0,East,4.6,-,N/A,,Scattered Clouds,90,2013-07-28 18:34:00
10:53 AM,57.0,51.1,81,30.28,10.0,East,3.5,-,N/A,,Clear,100,2013-07-28 18:53:00
11:53 AM,62.1,52.0,70,30.27,10.0,East,5.8,-,N/A,,Clear,100,2013-07-28 19:53:00
12:53 PM,64.9,52.0,63,30.25,10.0,East,5.8,-,N/A,,Clear,100,2013-07-28 20:53:00
1:53 PM,66.0,51.1,59,30.24,10.0,ESE,5.8,-,N/A,,Clear,110,2013-07-28 21:53:00
2:53 PM,69.1,50.0,51,30.23,10.0,ESE,5.8,-,N/A,,Clear,110,2013-07-28 22:53:00
3:53 PM,66.9,48.0,51,30.21,10.0,ESE,6.9,-,N/A,,Clear,110,2013-07-28 23:53:00
4:53 PM,66.9,48.0,51,30.19,10.0,East,8.1,-,N/A,,Clear,80,2013-07-29 00:53:00
5:53 PM,66.9,48.9,52,30.18,10.0,East,8.1,-,N/A,,Clear,90,2013-07-29 01:53:00
6:53 PM,70.0,51.1,51,30.17,10.0,East,9.2,-,N/A,,Clear,90,2013-07-29 02:53:00
7:53 PM,68.0,52.0,56,30.17,10.0,East,11.5,17.3,N/A,,Clear,100,2013-07-29 03:53:00
8:53 PM,64.0,52.0,65,30.17,10.0,East,10.4,-,N/A,,Clear,90,2013-07-29 04:53:00
9:53 PM,62.1,53.1,72,30.17,10.0,East,10.4,-,N/A,,Clear,80,2013-07-29 05:53:00
10:53 PM,61.0,52.0,72,30.18,10.0,East,6.9,-,N/A,,Clear,90,2013-07-29 06:53:00
11:53 PM,59.0,53.1,81,30.19,10.0,ESE,4.6,-,N/A,,Clear,110,2013-07-29 07:53:00